(306674) = 2000 TR18 = 2004 TL302

Discovered at Socorro on 2000-10-01 by LINEAR.

Orbit

Orbit type: Main Belt

Note: WebGL enabled browser required.

epoch2023-09-13.0
epoch JD2460200.5
perihelion date2020-06-06.27650
perihelion JD2459006.77650
argument of perihelion (°)327.30487
ascending node (°)28.75015
inclination (°)5.45019
eccentricity0.0712541
perihelion distance (AU)2.3382581
Tisserand w.r.t. Jupiter3.4
ΔV w.r.t. Earth (km/sec)9.7
semimajor axis (AU)2.5176512
mean anomaly (°)294.51964
mean daily motion (°/day)0.24672350
aphelion distance (AU)2.697
period (years)3.99
P-vector [x]0.99645599
P-vector [y]-0.04074888
P-vector [z]-0.07358667
Q-vector [x]0.07062841
Q-vector [y]0.88045295
Q-vector [z]0.46884351
absolute magnitude16.32
phase slope0.15
uncertainty0
referenceMPEC 2023-X152
observations used660
oppositions12
arc length (days)7906
first opposition used2000
last opposition used2022
residual rms (arc-secs)0.66
perturbers coarse indicatorM-v
perturbers precise indicator003Ek
first observation date used2000-10-01.0
last observation date used2022-05-25.0
computer nameMPCLINUX
JD of orbit computation2456937.477226
perihelion JD uncertainty (days)9.8517E-04
argument of perihelion uncertainty (°)1.4682E-04
ascending node uncertainty (°)4.5589E-05
inclination uncertainty (°)1.2793E-05
eccentricity uncertainty 1.7502E-06
perihelion distance uncertainty (AU)4.4081E-06
Minimum Orbit Intersection Distances (in AU)
for orbit epoch: 2460200.5, reference: E2023-XF2
Mercury1.95205
Venus1.61143
Earth1.33563
Mars0.93106
Jupiter2.59386
Saturn6.51666
Uranus15.7558
Neptune27.4637

Observations

678 total observations over interval: 2000 10 01.34469 – 2022 05 25.180492
These data are available for download (format description).

Date (UT) J2000 RA J2000 Dec Magn Location Ref
2000 10 01.34469 02 32 03.64 +14 40 25.3 20.0   704 – Lincoln Laboratory ETS, New Mexico MPS 20302
2000 10 01.37485 02 32 02.48 +14 40 23.6 20.6   704 – Lincoln Laboratory ETS, New Mexico MPS 20302
2000 10 01.38993 02 32 01.74 +14 40 23.8 20.8   704 – Lincoln Laboratory ETS, New Mexico MPS 20302
2000 10 01.40502 02 32 01.21 +14 40 22.8 21.0   704 – Lincoln Laboratory ETS, New Mexico MPS 20302
2000 10 02.38211 02 31 24.08 +14 40 00.3 19.8   704 – Lincoln Laboratory ETS, New Mexico MPS 20302
2000 10 02.39707 02 31 23.46 +14 39 59.4 20.0   704 – Lincoln Laboratory ETS, New Mexico MPS 20302
2000 10 02.42746 02 31 22.10 +14 39 58.2 20.2   704 – Lincoln Laboratory ETS, New Mexico MPS 20302
2000 11 01.22888 02 04 18.31 +13 48 31.3 18.7   704 – Lincoln Laboratory ETS, New Mexico MPS 21454
2000 11 01.25623 02 04 16.70 +13 48 26.3 19.4   704 – Lincoln Laboratory ETS, New Mexico MPS 21454
2000 11 01.26984 02 04 15.82 +13 48 24.5 19.1   704 – Lincoln Laboratory ETS, New Mexico MPS 21454
2000 11 01.27198 02 04 15.59 +13 48 24.0 19.1   704 – Lincoln Laboratory ETS, New Mexico MPS 21454
2000 11 01.28593 02 04 14.82 +13 48 21.4 19.4   704 – Lincoln Laboratory ETS, New Mexico MPS 21454
2000 11 01.29982 02 04 13.93 +13 48 22.0 19.1   704 – Lincoln Laboratory ETS, New Mexico MPS 21454
2000 11 01.31370 02 04 13.11 +13 48 18.1 19.4   704 – Lincoln Laboratory ETS, New Mexico MPS 21454
2000 11 01.32757 02 04 12.22 +13 48 16.8 19.8   704 – Lincoln Laboratory ETS, New Mexico MPS 21454
2000 11 02.27490 02 03 16.28 +13 45 56.8 18.6   704 – Lincoln Laboratory ETS, New Mexico MPS 21454
2000 11 02.28845 02 03 15.47 +13 45 54.9 19.2   704 – Lincoln Laboratory ETS, New Mexico MPS 21454
2000 11 02.30208 02 03 14.64 +13 45 53.3 19.6   704 – Lincoln Laboratory ETS, New Mexico MPS 21454
2000 11 02.31562 02 03 13.71 +13 45 51.4 19.4   704 – Lincoln Laboratory ETS, New Mexico MPS 21454
2000 11 02.32919 02 03 12.93 +13 45 50.1 19.1   704 – Lincoln Laboratory ETS, New Mexico MPS 21454
2000 11 02.35055 02 03 11.69 +13 45 45.1 19.3 V 691 – Steward Observatory, Kitt Peak-Spacewatch MPS 22585
2000 11 02.37191 02 03 10.38 +13 45 41.9 19.3 V 691 – Steward Observatory, Kitt Peak-Spacewatch MPS 22585
2000 11 02.39559 02 03 08.94 +13 45 38.2 19.4 V 691 – Steward Observatory, Kitt Peak-Spacewatch MPS 22585
2000 11 03.27387 02 02 17.70 +13 43 30.0 19.0   704 – Lincoln Laboratory ETS, New Mexico MPS 22585
2000 11 03.28748 02 02 16.76 +13 43 28.6 19.5   704 – Lincoln Laboratory ETS, New Mexico MPS 22585
2000 11 03.30111 02 02 16.05 +13 43 25.3 19.7   704 – Lincoln Laboratory ETS, New Mexico MPS 22585
2000 11 03.32834 02 02 14.28 +13 43 22.0 19.4   704 – Lincoln Laboratory ETS, New Mexico MPS 22585
2000 11 27.17481 01 44 24.18 +13 01 18.7 18.5   704 – Lincoln Laboratory ETS, New Mexico MPS 22585
2000 11 27.19226 01 44 23.69 +13 01 17.5 19.1   704 – Lincoln Laboratory ETS, New Mexico MPS 22585
2000 11 27.22602 01 44 22.67 +13 01 19.2 19.0   704 – Lincoln Laboratory ETS, New Mexico MPS 22585
2004 09 22.33935 02 39 36.30 +14 59 07.0 20.0 R 333 – Desert Eagle Observatory MPS 163602
2004 09 22.40826 02 39 34.78 +14 59 10.7 19.9 R 333 – Desert Eagle Observatory MPS 163602
2004 10 09.25268 02 29 48.94 +14 57 45.4 19.5   704 – Lincoln Laboratory ETS, New Mexico MPS 118682
2004 10 09.26362 02 29 48.31 +14 57 44.9 20.2   704 – Lincoln Laboratory ETS, New Mexico MPS 118682
2004 10 09.27456 02 29 47.78 +14 57 44.0 20.0   704 – Lincoln Laboratory ETS, New Mexico MPS 118682
2004 10 09.28550 02 29 47.25 +14 57 44.2 20.0   704 – Lincoln Laboratory ETS, New Mexico MPS 118682
2004 10 09.29645 02 29 46.73 +14 57 43.2 19.7   704 – Lincoln Laboratory ETS, New Mexico MPS 118682
2004 10 15.40737 02 24 29.70 +14 49 37.4 19.2 R 699 – Lowell Observatory-LONEOS MPS 118682
2004 10 15.41710 02 24 29.05 +14 49 36.0   699 – Lowell Observatory-LONEOS MPS 118682
2004 10 15.42683 02 24 28.52 +14 49 34.3   699 – Lowell Observatory-LONEOS MPS 118682
2004 10 15.43657 02 24 27.98 +14 49 33.4   699 – Lowell Observatory-LONEOS MPS 118682
2004 10 20.21354 02 19 55.24 +14 40 56.1 20.0   704 – Lincoln Laboratory ETS, New Mexico MPS 163602
2004 10 20.22295 02 19 54.76 +14 40 54.7 19.9   704 – Lincoln Laboratory ETS, New Mexico MPS 163602
2004 10 20.23235 02 19 54.19 +14 40 53.9 19.7   704 – Lincoln Laboratory ETS, New Mexico MPS 163602
2004 10 20.24176 02 19 53.64 +14 40 52.7 20.0   704 – Lincoln Laboratory ETS, New Mexico MPS 163602
2004 11 04.22698 02 04 52.82 +14 06 24.5 18.5 R 699 – Lowell Observatory-LONEOS MPS 118682
2004 11 04.24645 02 04 51.70 +14 06 21.6   699 – Lowell Observatory-LONEOS MPS 118682
2004 11 04.26593 02 04 50.50 +14 06 18.6   699 – Lowell Observatory-LONEOS MPS 118682
2004 11 04.28539 02 04 49.22 +14 06 16.8   699 – Lowell Observatory-LONEOS MPS 118682
2004 11 04.30368 02 04 48.30 +14 06 14.7 17.9 R 703 – Catalina Sky Survey MPS 118682
2004 11 04.31171 02 04 47.77 +14 06 13.3 18.7 R 703 – Catalina Sky Survey MPS 118682
2004 11 04.31987 02 04 47.24 +14 06 11.9 18.6 R 703 – Catalina Sky Survey MPS 118682
2004 11 04.32792 02 04 46.74 +14 06 11.1 18.7 R 703 – Catalina Sky Survey MPS 118682
2004 11 12.22979 01 57 31.80 +13 47 51.3 18.5 R 703 – Catalina Sky Survey MPS 119331
2004 11 12.23630 01 57 31.36 +13 47 49.6 18.5 R 703 – Catalina Sky Survey MPS 119331
2004 11 12.24280 01 57 31.13 +13 47 49.9 18.5 R 703 – Catalina Sky Survey MPS 119331
2004 11 12.24935 01 57 30.67 +13 47 49.9 18.6 R 703 – Catalina Sky Survey MPS 119331
2004 11 19.21419 01 52 07.50 +13 34 33.3 18.6 R 703 – Catalina Sky Survey MPS 119886
2004 11 19.22242 01 52 07.10 +13 34 34.1 18.9 R 703 – Catalina Sky Survey MPS 119886
2004 11 19.23067 01 52 06.74 +13 34 33.0 19.2 R 703 – Catalina Sky Survey MPS 119886
2004 11 19.23881 01 52 06.40 +13 34 33.0 18.7 R 703 – Catalina Sky Survey MPS 119886
2004 12 02.10275 01 45 32.55 +13 22 38.9 19.6 R 699 – Lowell Observatory-LONEOS MPS 124592
2004 12 02.12219 01 45 32.06 +13 22 41.5   699 – Lowell Observatory-LONEOS MPS 124592
2004 12 02.14167 01 45 31.72 +13 22 39.3   699 – Lowell Observatory-LONEOS MPS 124592
2004 12 02.15404 01 45 31.45 +13 22 39.2 19.8   644 – Palomar Mountain/NEAT MPS 120601
2004 12 02.16114 01 45 31.18 +13 22 42.5   699 – Lowell Observatory-LONEOS MPS 124592
2004 12 02.17510 01 45 31.00 +13 22 38.9 19.6   644 – Palomar Mountain/NEAT MPS 120601
2004 12 02.19704 01 45 30.53 +13 22 38.6 19.8   644 – Palomar Mountain/NEAT MPS 120601
2006 01 26.38531 10 50 10.68 +15 13 31.4 20.9 V 703 – Catalina Sky Survey MPS 160217
2006 01 26.39353 10 50 10.28 +15 13 33.6 20.0 V 703 – Catalina Sky Survey MPS 160217
2006 01 26.40168 10 50 10.03 +15 13 38.3 20.9 V 703 – Catalina Sky Survey MPS 160217
2006 01 26.40987 10 50 09.74 +15 13 39.3 20.3 V 703 – Catalina Sky Survey MPS 160217
2006 03 03.22887 10 19 05.29 +17 57 08.7 19.5 R 699 – Lowell Observatory-LONEOS MPS 165924
2006 03 03.25444 10 19 03.75 +17 57 15.4   699 – Lowell Observatory-LONEOS MPS 165924
2006 03 03.28767 10 19 01.94 +17 57 23.9   699 – Lowell Observatory-LONEOS MPS 165924
2006 03 03.31480 10 19 00.25 +17 57 28.3   699 – Lowell Observatory-LONEOS MPS 165924
2008 09 21.41072 02 41 27.56 +15 08 54.2 19.9 V 691 – Steward Observatory, Kitt Peak-Spacewatch MPS 256517
2008 09 21.42834 02 41 27.22 +15 08 55.4 19.8 V 691 – Steward Observatory, Kitt Peak-Spacewatch MPS 256517
2008 09 21.44596 02 41 26.85 +15 08 56.7 19.8 V 691 – Steward Observatory, Kitt Peak-Spacewatch MPS 256517
2008 09 24.34520 02 40 28.02 +15 11 30.1 20.0   704 – Lincoln Laboratory ETS, New Mexico MPS 256517
2008 09 24.35726 02 40 27.68 +15 11 30.2 20.1   704 – Lincoln Laboratory ETS, New Mexico MPS 256517
2008 09 24.36931 02 40 27.41 +15 11 30.7 20.1   704 – Lincoln Laboratory ETS, New Mexico MPS 256517
2008 09 24.39341 02 40 26.79 +15 11 32.1 20.4   704 – Lincoln Laboratory ETS, New Mexico MPS 256517
2008 09 25.40470 02 40 02.45 +15 12 11.6 19.7 V 691 – Steward Observatory, Kitt Peak-Spacewatch MPS 257741
2008 09 25.42233 02 40 01.97 +15 12 12.2 19.8 V 691 – Steward Observatory, Kitt Peak-Spacewatch MPS 257741
2008 09 25.44341 02 40 01.41 +15 12 12.9 19.8 V 691 – Steward Observatory, Kitt Peak-Spacewatch MPS 257741
